Date String (YYYY-MM-DD hh:mm:ss) UTC,Instrument flags,absolute air pressure of the measurement (hPa),sample flow rate (lpm),inlet stack bypass flow (lpm),air temperature of the measurement (°C),ambient temperature measured by the external sensor (°C),aerosol sample conditioner tube jacket temperature (°C),OPC LED temperature (°C),internal box temperature (°C),relative humidity of the measurement (%),span deviation,mass concentration of particles derived from Lorenz-Mie calculation of OPC scattering (μg/m³),mass concentration of particles derived from Lorenz-Mie calculation of OPC scattering (μg/m³),mass concentration of particles derived from Lorenz-Mie calculation of OPC scattering (μg/m³)
DateTimeUTC,F1_M11,P_M11,Q1_M11,Q2_M11,T1_M11,T2_M11,T3_M11,T4_M11,T5_M11,U1_M11,ZSPAN_M11,X0_M11,X2_M11,X1_M11
2023-06-12 14:00:00,SystemResetWarning,0830.6,5.00,000.00,029.0,027.5,000.0,037.6,030.6,32.0,0002.3,0008.54,0005.24,0004.80
2023-06-12 14:01:00,SystemResetWarning,0830.6,5.00,000.00,029.0,027.6,000.0,037.6,030.6,32.4,0002.5,0008.59,0005.23,0004.80
2023-06-12 14:02:00,SystemResetWarning,0830.6,4.99,000.00,029.0,027.6,000.0,037.6,030.6,32.5,0002.4,0008.78,0005.26,0004.80
2023-06-12 14:03:00,SystemResetWarning,0830.7,5.00,000.00,029.1,027.6,000.0,037.6,030.6,33.1,0002.4,0008.80,0005.28,0004.80
2023-06-12 14:04:00,SystemResetWarning,0830.7,4.99,000.00,029.1,027.6,000.0,037.6,030.6,33.5,0002.4,0008.80,0005.28,0004.80
2023-06-12 14:05:00,SystemResetWarning,0830.7,5.01,000.00,029.1,027.6,000.0,037.6,030.6,33.7,0002.2,0008.79,0005.27,0004.79
2023-06-12 14:06:00,SystemResetWarning,0830.7,5.00,000.00,029.1,027.6,000.0,037.6,030.6,33.6,0002.0,0008.83,0005.27,0004.78
2023-06-12 14:07:00,SystemResetWarning,0830.7,5.01,000.00,029.1,027.6,000.0,037.6,030.6,32.9,0002.4,0008.80,0005.27,0004.79
2023-06-12 14:08:00,SystemResetWarning,0830.7,5.01,000.00,029.1,027.6,000.0,037.6,030.6,32.4,0002.8,0008.78,0005.28,0004.81
2023-06-12 14:09:00,SystemResetWarning,0830.7,4.99,000.00,029.1,027.6,000.0,037.6,030.6,32.8,0003.1,0008.71,0005.30,0004.85
2023-06-12 14:10:00,SystemResetWarning,0830.7,5.00,000.00,029.1,027.6,000.0,037.6,030.6,32.4,0002.9,0008.74,0005.37,0004.92
2023-06-12 14:11:00,SystemResetWarning,0830.7,4.99,000.00,029.1,027.6,000.0,037.6,030.6,31.4,0002.9,0008.79,0005.43,0004.98
2023-06-12 14:12:00,SystemResetWarning,0830.7,4.99,000.00,029.1,027.6,000.0,037.6,030.6,31.7,0002.7,0008.70,0005.45,0005.02
2023-06-12 14:13:00,SystemResetWarning,0830.6,5.00,000.00,029.1,027.6,000.0,037.6,030.7,32.4,0002.7,0008.62,0005.47,0005.04
2023-06-12 14:14:00,SystemResetWarning,0830.6,5.00,000.00,029.1,027.7,000.0,037.6,030.7,31.9,0002.6,0008.66,0005.48,0005.07
2023-06-12 14:15:00,SystemResetWarning,0830.6,5.01,000.00,029.1,027.7,000.0,037.6,030.7,31.8,0002.7,0008.70,0005.52,0005.09
2023-06-12 14:16:00,SystemResetWarning,0830.6,5.00,000.00,029.1,027.7,000.0,037.7,030.7,32.3,0002.7,0008.80,0005.57,0005.12
2023-06-12 14:17:00,SystemResetWarning,0830.6,5.00,000.00,029.2,027.7,000.0,037.7,030.7,32.2,0002.5,0008.80,0005.63,0005.14
2023-06-12 14:18:00,SystemResetWarning,0830.5,5.00,000.00,029.2,027.7,000.0,037.7,030.7,32.3,0002.6,0008.94,0005.71,0005.18
2023-06-12 14:19:00,SystemResetWarning,0830.6,5.00,000.00,029.2,027.7,000.0,037.7,030.7,31.3,0002.3,0009.06,0005.77,0005.22
2023-06-12 14:20:00,SystemResetWarning,0830.6,5.00,000.00,029.2,027.8,000.0,037.7,030.7,30.9,0002.0,0009.27,0005.86,0005.26
2023-06-12 14:21:00,SystemResetWarning,0830.6,5.00,000.00,029.2,027.8,000.0,037.7,030.8,31.4,0002.1,0009.34,0005.90,0005.28
2023-06-12 14:22:00,SystemResetWarning,0830.5,5.00,000.00,029.2,027.8,000.0,037.7,030.8,31.2,0002.0,0009.33,0005.91,0005.29
2023-06-12 14:23:00,SystemResetWarning,0830.5,4.99,000.00,029.2,027.8,000.0,037.7,030.8,31.9,0002.0,0009.34,0005.92,0005.29
2023-06-12 14:24:00,SystemResetWarning,0830.5,4.99,000.00,029.2,027.8,000.0,037.7,030.8,32.3,0002.9,0009.42,0005.97,0005.32
2023-06-12 14:25:00,SystemResetWarning,0830.6,5.00,000.00,029.3,027.8,000.0,037.7,030.8,31.4,0003.4,0009.50,0006.03,0005.36
2023-06-12 14:26:00,SystemResetWarning,0830.6,5.01,000.00,029.3,027.8,000.0,037.8,030.8,31.8,0003.4,0009.48,0006.03,0005.37
2023-06-12 14:27:00,SystemResetWarning,0830.6,5.01,000.00,029.3,027.8,000.0,037.8,030.8,32.0,0003.1,0009.39,0006.02,0005.40
2023-06-12 14:28:00,SystemResetWarning,0830.6,4.99,000.00,029.3,027.8,000.0,037.8,030.9,31.8,0002.8,0009.39,0006.02,0005.44
2023-06-12 14:29:00,SystemResetWarning,0830.6,5.00,000.00,029.3,027.9,000.0,037.8,030.9,31.5,0002.5,0009.33,0006.01,0005.48
2023-06-12 14:30:00,SystemResetWarning,0830.6,4.99,000.00,029.3,027.9,000.0,037.8,030.9,31.3,0002.7,0009.27,0006.01,0005.50
2023-06-12 14:31:00,SystemResetWarning,0830.6,5.01,000.00,029.3,027.9,000.0,037.8,030.9,30.8,0002.9,0009.22,0006.00,0005.52
2023-06-12 14:32:00,SystemResetWarning,0830.6,5.00,000.00,029.3,027.9,000.0,037.8,030.9,30.6,0002.9,0009.48,0006.02,0005.53
2023-06-12 14:33:00,SystemResetWarning,0830.6,4.98,000.00,029.3,027.9,000.0,037.8,030.9,31.6,0002.7,0009.51,0006.02,0005.54
2023-06-12 14:34:00,SystemResetWarning,0830.6,5.01,000.00,029.4,027.9,000.0,037.8,030.9,32.0,0002.3,0009.82,0006.05,0005.55
2023-06-12 14:35:00,SystemResetWarning,0830.7,5.01,000.00,029.4,027.9,000.0,037.8,031.0,33.1,0001.4,0010.07,0006.03,0005.52
2023-06-12 14:36:00,SystemResetWarning,0830.6,5.01,000.00,029.4,027.9,000.0,037.9,031.0,32.7,0000.6,0010.08,0006.01,0005.50
2023-06-12 14:37:00,SystemResetWarning,0830.7,4.99,000.00,029.4,028.0,000.0,037.9,031.0,32.1,0000.4,0010.10,0006.03,0005.52
2023-06-12 14:38:00,SystemResetWarning,0830.7,5.00,000.00,029.4,028.0,000.0,037.9,031.0,31.5,0000.7,0010.15,0006.03,0005.52
2023-06-12 14:39:00,SystemResetWarning,0830.7,5.00,000.00,029.4,028.0,000.0,037.9,031.0,31.9,0000.5,0010.13,0006.02,0005.50
2023-06-12 14:40:00,SystemResetWarning,0830.7,5.02,000.00,029.4,028.0,000.0,037.9,031.0,30.9,0000.6,0010.22,0005.98,0005.46
2023-06-12 14:41:00,SystemResetWarning,0830.7,4.99,000.00,029.4,028.0,000.0,037.9,031.0,30.7,0000.3,0010.21,0005.91,0005.42
2023-06-12 14:42:00,SystemResetWarning,0830.6,4.99,000.00,029.5,028.0,000.0,037.9,031.0,31.0,0000.2,0010.11,0005.86,0005.37
2023-06-12 14:43:00,SystemResetWarning,0830.5,5.00,000.00,029.5,028.0,000.0,037.9,031.1,32.0,0000.2,0009.82,0005.83,0005.36
2023-06-12 14:44:00,SystemResetWarning,0830.6,5.01,000.00,029.5,028.0,000.0,038.0,031.1,32.2,0000.5,0009.72,0005.82,0005.33
2023-06-12 14:45:00,SystemResetWarning,0830.5,5.01,000.00,029.5,028.0,000.0,038.0,031.1,31.1,0000.4,0009.41,0005.80,0005.34
2023-06-12 14:46:00,SystemResetWarning,0830.5,5.01,000.00,029.5,028.0,000.0,038.0,031.1,31.7,0000.4,0009.16,0005.79,0005.36
2023-06-12 14:47:00,SystemResetWarning,0830.6,4.99,000.00,029.5,028.0,000.0,038.0,031.1,31.6,0000.5,0009.10,0005.77,0005.34
2023-06-12 14:48:00,SystemResetWarning,0830.6,5.00,000.00,029.5,028.0,000.0,038.0,031.1,31.1,0000.6,0009.06,0005.73,0005.31
2023-06-12 14:49:00,SystemResetWarning,0830.5,5.00,000.00,029.5,028.1,000.0,038.0,031.1,31.0,0000.3,0009.47,0005.71,0005.28
2023-06-12 14:50:00,SystemResetWarning,0830.5,5.00,000.00,029.5,028.1,000.0,038.0,031.1,31.4,0000.8,0009.72,0005.71,0005.27
2023-06-12 14:51:00,SystemResetWarning,0830.8,5.00,000.00,029.6,028.1,000.0,038.0,031.1,30.8,0000.8,0009.61,0005.69,0005.25
2023-06-12 14:52:00,SystemResetWarning,0830.4,5.00,000.00,029.6,028.1,000.0,038.0,031.1,31.4,0000.8,0009.49,0005.70,0005.25
2023-06-12 14:53:00,SystemResetWarning,0830.7,5.00,000.00,029.6,028.1,000.0,038.1,031.1,31.3,0000.7,0009.55,0005.69,0005.23
2023-06-12 14:54:00,SystemResetWarning,0830.5,5.01,000.00,029.6,028.1,000.0,038.1,031.1,31.7,0000.5,0009.50,0005.62,0005.18
2023-06-12 14:55:00,SystemResetWarning,0830.5,4.99,000.00,029.6,028.1,000.0,038.1,031.2,31.5,0000.1,0009.50,0005.58,0005.14
2023-06-12 14:56:00,SystemResetWarning,0830.4,5.00,000.00,029.6,028.1,000.0,038.1,031.2,31.7,0000.2,0009.46,0005.54,0005.08
2023-06-12 14:57:00,SystemResetWarning,0830.4,5.00,000.00,029.6,028.1,000.0,038.1,031.2,31.7,0000.3,0009.49,0005.47,0005.02
2023-06-12 14:58:00,SystemResetWarning,0830.4,5.00,000.00,029.6,028.1,000.0,038.1,031.2,32.3,0000.3,0009.80,0005.42,0004.96
2023-06-12 14:59:00,SystemResetWarning,0830.4,5.00,000.00,029.6,028.1,000.0,038.1,031.2,31.6,0000.8,0009.85,0005.40,0004.95
